Location: *
(51.5000°N, 0.1100°W)
Time: 21:11:22
(UTC+00:00)

Meteor 1-28 Rocket - Pass Details

Date: 25 May 2024
Orbit: 474 x 489 km, 97.5° (Epoch: 16 June)

Event Time Altitude Azimuth Distance (km) Brightness Sun altitude
Exits shadow 02:44:06 - 177° (S) 2,041 5.8 -8.8°
Reaches altitude 10° 02:45:01 10° 180° (S) 1,655 5.3 -8.7°
Maximum altitude 02:48:31 56° 259° (WSW) 579 3.2 -8.4°
Drops below altitude 10° 02:52:02 10° 339° (NNW) 1,662 6.2 -8.0°
Sets 02:54:08 0° 343° (NNW) 2,544 7.2 -7.8°
